KC3BHK-2 Weather Reports


Display with metric or nautical units.
time (UTC)temp
F
wind
direction
speed
MPH
gust
MPH
rain 1hr
in
rain 24hr
in
rain mn
in
humidity
%
barometer
mb
20260508124939 56 205 7.0 8.0 0.00 0.00 0.00
20260508124434 55 201 6.0 9.0 0.00 0.00 0.00
20260508123926 55 255 6.0 9.0 0.00 0.00 0.00
20260508123421 54 212 6.0 9.0 0.00 0.00 0.00
20260508122916 53 231 7.0 9.0 0.00 0.00 0.00
20260508122411 53 232 7.0 9.0 0.00 0.00 0.00
20260508121906 54 217 4.0 8.0 0.00 0.00 0.00
20260508121401 53 191 4.0 8.0 0.00 0.00 0.00
20260508120854 54 198 5.0 8.0 0.00 0.00 0.00
20260508120349 53 252 7.0 9.0 0.00 0.00 0.00
20260508115843 52 210 7.0 10.0 0.00 0.00 0.00
20260508115338 51 141 3.0 7.0 0.00 0.00 0.00
20260508114833 49 203 3.0 6.0 0.00 0.00 0.00
20260508114328 47 169 1.0 0.0 0.00 0.00 0.00
20260508113819 44 191 0.0 0.0 0.00 0.00 0.00
20260508113314 44 191 0.0 0.0 0.00 0.00 0.00
20260508112306 42 191 0.0 0.0 0.00 0.00 0.00
20260508111759 41 191 0.0 0.0 0.00 0.00 0.00
20260508111254 41 191 0.0 0.0 0.00 0.00 0.00
20260508110746 40 191 0.0 0.0 0.00 0.00 0.00
20260508110241 39 191 0.0 0.0 0.00 0.00 0.00
20260508105736 38 191 0.0 0.0 0.00 0.00 0.00
20260508105231 37 191 0.0 0.0 0.00 0.00 0.00
20260508104725 38 191 0.0 0.0 0.00 0.00 0.00
20260508103712 37 191 0.0 0.0 0.00 0.00 0.00
20260508103207 37 191 0.0 0.0 0.00 0.00 0.00
20260508102702 37 191 0.0 0.0 0.00 0.00 0.00
20260508102156 38 191 0.0 0.0 0.00 0.00 0.00
20260508101651 36 191 0.0 0.0 0.00 0.00 0.00
20260508100638 36 191 0.0 0.0 0.00 0.00 0.00
20260508100133 38 191 0.0 0.0 0.00 0.00 0.00
20260508095628 38 191 0.0 0.0 0.00 0.00 0.00
20260508095123 37 191 0.0 0.0 0.00 0.00 0.00
20260508094617 38 191 0.0 0.0 0.00 0.00 0.00
20260508094112 38 191 0.0 0.0 0.00 0.00 0.00
20260508093604 38 191 0.0 0.0 0.00 0.00 0.00
20260508093059 39 191 0.0 0.0 0.00 0.00 0.00
20260508092554 38 191 0.0 0.0 0.00 0.00 0.00
20260508091542 38 191 0.0 0.0 0.00 0.00 0.00
20260508091037 39 191 0.0 0.0 0.00 0.00 0.00
20260508090024 39 191 0.0 0.0 0.00 0.00 0.00
20260508085519 40 191 0.0 0.0 0.00 0.00 0.00
20260508085013 41 191 0.0 1.0 0.00 0.00 0.00
20260508084508 41 191 0.0 2.0 0.00 0.00 0.00
20260508084003 43 132 0.0 2.0 0.00 0.00 0.00
20260508083454 42 166 0.0 2.0 0.00 0.00 0.00
20260508082949 42 215 2.0 2.0 0.00 0.00 0.00
20260508082444 43 70 0.0 2.0 0.00 0.00 0.00
20260508081939 42 45 0.0 0.0 0.00 0.00 0.00
20260508081434 43 45 0.0 0.0 0.00 0.00 0.00
20260508080929 42 45 0.0 3.0 0.00 0.00 0.00
20260508080421 43 87 2.0 2.0 0.00 0.00 0.00
20260508075916 43 330 0.0 0.0 0.00 0.00 0.00
20260508075411 43 330 0.0 0.0 0.00 0.00 0.00
20260508074906 45 330 0.0 0.0 0.00 0.00 0.00
20260508074401 44 330 0.0 0.0 0.00 0.00 0.00
20260508073856 45 330 0.0 0.0 0.00 0.00 0.00
20260508072843 45 330 0.0 0.0 0.00 0.00 0.00
20260508072338 46 330 0.0 2.0 0.00 0.00 0.00
20260508071833 46 11 1.0 2.0 0.00 0.00 0.00
20260508071328 47 293 0.0 3.0 0.00 0.00 0.00
20260508070822 48 281 0.0 7.0 0.00 0.00 0.00
20260508070314 49 14 0.0 5.0 0.00 0.00 0.00
20260508065809 48 312 3.0 4.0 0.00 0.00 0.00
20260508065306 49 328 1.0 6.0 0.00 0.00 0.00
20260508064759 49 62 1.0 7.0 0.00 0.00 0.00
20260508064254 50 285 0.0 7.0 0.00 0.00 0.00
20260508063749 49 301 1.0 8.0 0.00 0.00 0.00
20260508063240 50 20 2.0 7.0 0.00 0.00 0.00
20260508062735 49 336 3.0 7.0 0.00 0.00 0.00
20260508062230 51 333 2.0 9.0 0.00 0.00 0.00
20260508061725 51 300 8.0 8.0 0.00 0.00 0.00
20260508061221 51 267 4.0 11.0 0.00 0.00 0.00
20260508060716 52 271 5.0 9.0 0.00 0.00 0.00
20260508060208 50 302 1.0 8.0 0.00 0.00 0.00
20260508055702 52 239 1.0 7.0 0.00 0.00 0.00
20260508055157 52 283 6.0 8.0 0.00 0.00 0.00
20260508054652 51 343 1.0 8.0 0.00 0.00 0.00
20260508054147 51 274 3.0 7.0 0.00 0.00 0.00
20260508053642 52 284 2.0 8.0 0.00 0.00 0.00
20260508053134 52 290 8.0 8.0 0.00 0.00 0.00
20260508052629 52 271 7.0 8.0 0.00 0.00 0.00
20260508051619 54 315 6.0 9.0 0.00 0.00 0.00
20260508051114 54 297 4.0 10.0 0.00 0.00 0.00
20260508050609 53 287 6.0 9.0 0.00 0.00 0.00
20260508045556 54 311 4.0 8.0 0.00 0.00 0.00
20260508045051 54 284 6.0 9.0 0.00 0.00 0.00
20260508044545 53 281 8.0 8.0 0.00 0.00 0.00
20260508044040 54 302 3.0 12.0 0.00 0.00 0.00
20260508043534 54 318 6.0 10.0 0.00 0.00 0.00
20260508043027 54 301 7.0 10.0 0.00 0.00 0.00
20260508042522 54 304 4.0 10.0 0.00 0.00 0.00
20260508042017 54 277 6.0 11.0 0.00 0.00 0.00
20260508041512 54 276 3.0 10.0 0.00 0.00 0.00
20260508041007 55 285 6.0 8.0 0.00 0.00 0.00
20260508040502 55 291 6.0 10.0 0.00 0.00 0.00
20260508034945 56 271 5.0 12.0 0.00 0.00 0.00
20260508034440 54 294 6.0 12.0 0.00 0.00 0.00
20260508033935 55 263 4.0 10.0 0.00 0.00 0.00
20260508033430 54 294 5.0 9.0 0.00 0.00 0.00
20260508032921 53 297 3.0 9.0 0.00 0.00 0.00
20260508032417 52 283 7.0 7.0 0.00 0.00 0.00
20260508031912 51 291 3.0 5.0 0.00 0.00 0.00
20260508031407 50 293 4.0 3.0 0.00 0.00 0.00
20260508030902 50 113 0.0 2.0 0.00 0.00 0.00
20260508030357 50 143 1.0 2.0 0.00 0.00 0.00
20260508025849 52 215 1.0 4.0 0.00 0.00 0.00
20260508025345 52 200 2.0 5.0 0.00 0.00 0.00
20260508024839 52 146 0.0 6.0 0.00 0.00 0.00
20260508024334 53 231 4.0 4.0 0.00 0.00 0.00
20260508023829 52 231 2.0 5.0 0.00 0.00 0.00
20260508023324 52 212 2.0 5.0 0.00 0.00 0.00
20260508022816 53 169 4.0 5.0 0.00 0.00 0.00
20260508022311 53 131 0.0 0.0 0.00 0.00 0.00
20260508021806 54 131 0.0 3.0 0.00 0.00 0.00
20260508021301 55 148 2.0 3.0 0.00 0.00 0.00
20260508020757 55 180 3.0 5.0 0.00 0.00 0.00
20260508020252 56 248 4.0 5.0 0.00 0.00 0.00
20260508015744 56 250 3.0 5.0 0.00 0.00 0.00
20260508015239 57 245 4.0 5.0 0.00 0.00 0.00
20260508014735 56 238 5.0 5.0 0.00 0.00 0.00
20260508014230 57 260 0.0 5.0 0.00 0.00 0.00
20260508013725 57 233 3.0 5.0 0.00 0.00 0.00
20260508013220 57 259 3.0 6.0 0.00 0.00 0.00
20260508012712 57 232 3.0 5.0 0.00 0.00 0.00
20260508011702 58 224 2.0 6.0 0.00 0.00 0.00
20260508011158 58 238 3.0 6.0 0.00 0.00 0.00
20260508010653 58 225 5.0 8.0 0.00 0.00 0.00
20260508010148 58 211 6.0 7.0 0.00 0.00 0.00
20260508005640 60 248 6.0 10.0 0.00 0.00 0.00
20260508005136 60 217 6.0 10.0 0.00 0.00 0.00
20260508004631 60 257 5.0 5.0 0.00 0.00 0.00
20260508004126 59 246 4.0 6.0 0.00 0.00 0.00
20260508003116 58 169 2.0 0.0 0.00 0.00 0.00
20260508002609 59 156 0.0 4.0 0.00 0.00 0.00
20260508002104 60 156 1.0 4.0 0.00 0.00 0.00
20260508001558 60 242 0.0 3.0 0.00 0.00 0.00
20260508001053 59 159 0.0 3.0 0.00 0.00 0.00
20260508000549 59 174 2.0 0.0 0.00 0.00 0.00
20260508000044 60 236 0.0 0.0 0.00 0.00 0.00
20260507235536 60 236 0.0 0.0 0.00 0.00 0.00
20260507235032 60 236 0.0 0.0 0.00 0.00 0.00
20260507234527 61 236 0.0 2.0 0.00 0.00 0.00
20260507234022 62 236 0.0 4.0 0.00 0.00 0.00
20260507233517 62 274 4.0 4.0 0.00 0.00 0.00
20260507233013 63 269 2.0 4.0 0.00 0.00 0.00
20260507232505 62 285 2.0 4.0 0.00 0.00 0.00
20260507232000 64 262 2.0 3.0 0.00 0.00 0.00
20260507231455 64 248 2.0 4.0 0.00 0.00 0.00
20260507230951 64 236 3.0 4.0 0.00 0.00 0.00
20260507230446 63 225 3.0 4.0 0.00 0.00 0.00
20260507225941 65 200 2.0 4.0 0.00 0.00 0.00
20260507225433 64 228 2.0 4.0 0.00 0.00 0.00
20260507224423 66 150 0.0 5.0 0.00 0.00 0.00
20260507223919 66 204 1.0 6.0 0.00 0.00 0.00
20260507223414 68 262 3.0 5.0 0.00 0.00 0.00
20260507222909 70 274 0.0 5.0 0.00 0.00 0.00
20260507222402 71 330 3.0 10.0 0.00 0.00 0.00
20260507221857 71 328 1.0 8.0 0.00 0.00 0.00
20260507221352 70 271 5.0 4.0 0.00 0.00 0.00
20260507220848 71 197 2.0 3.0 0.00 0.00 0.00
20260507220342 72 212 0.0 5.0 0.00 0.00 0.00
20260507215837 70 257 2.0 3.0 0.00 0.00 0.00
20260507215330 69 208 2.0 7.0 0.00 0.00 0.00
20260507214825 71 264 5.0 7.0 0.00 0.00 0.00
20260507214321 74 44 4.0 3.0 0.00 0.00 0.00
20260507213816 73 330 0.0 5.0 0.00 0.00 0.00
20260507213311 73 231 0.0 6.0 0.00 0.00 0.00
20260507212804 73 53 1.0 5.0 0.00 0.00 0.00
20260507212257 72 27 1.0 6.0 0.00 0.00 0.00
20260507211752 72 21 2.0 6.0 0.00 0.00 0.00
20260507211248 73 350 2.0 6.0 0.00 0.00 0.00
20260507210743 70 208 4.0 7.0 0.00 0.00 0.00
20260507210238 73 180 4.0 5.0 0.00 0.00 0.00
20260507205734 74 79 1.0 4.0 0.00 0.00 0.00
20260507205226 73 305 0.0 9.0 0.00 0.00 0.00
20260507204721 74 69 0.0 4.0 0.00 0.00 0.00
20260507204217 71 307 3.0 0.0 0.00 0.00 0.00
20260507203712 73 10 0.0 7.0 0.00 0.00 0.00
20260507203208 73 66 3.0 9.0 0.00 0.00 0.00
20260507202703 75 15 3.0 6.0 0.00 0.00 0.00
20260507201651 73 322 3.0 8.0 0.00 0.00 0.00
20260507201146 73 66 3.0 4.0 0.00 0.00 0.00
20260507200641 74 30 2.0 7.0 0.00 0.00 0.00
20260507200137 75 308 2.0 7.0 0.00 0.00 0.00
20260507195632 75 66 1.0 8.0 0.00 0.00 0.00
20260507195124 73 6 2.0 9.0 0.00 0.00 0.00
20260507194620 72 35 3.0 8.0 0.00 0.00 0.00
20260507194115 73 14 1.0 10.0 0.00 0.00 0.00
20260507193610 73 291 4.0 5.0 0.00 0.00 0.00
20260507193105 76 255 4.0 9.0 0.00 0.00 0.00
20260507192601 74 49 1.0 8.0 0.00 0.00 0.00
20260507192053 73 325 1.0 6.0 0.00 0.00 0.00
20260507191548 73 55 1.0 5.0 0.00 0.00 0.00
20260507191044 72 300 3.0 8.0 0.00 0.00 0.00
20260507190539 71 298 5.0 8.0 0.00 0.00 0.00
20260507190034 73 285 5.0 6.0 0.00 0.00 0.00
20260507185530 71 330 3.0 10.0 0.00 0.00 0.00
20260507185022 73 291 6.0 6.0 0.00 0.00 0.00
20260507184517 72 287 5.0 9.0 0.00 0.00 0.00
20260507183508 67 176 3.0 11.0 0.00 0.00 0.00
20260507183003 68 269 8.0 12.0 0.00 0.00 0.00
20260507182458 70 301 2.0 8.0 0.00 0.00 0.00
20260507181950 69 231 4.0 6.0 0.00 0.00 0.00
20260507181445 69 236 4.0 8.0 0.00 0.00 0.00
20260507180941 67 288 2.0 12.0 0.00 0.00 0.00
20260507180436 67 256 7.0 15.0 0.00 0.00 0.00
20260507175931 68 284 9.0 14.0 0.00 0.00 0.00
20260507175427 70 284 9.0 5.0 0.00 0.00 0.00
20260507174919 70 332 1.0 9.0 0.00 0.00 0.00
20260507174415 71 276 6.0 7.0 0.00 0.00 0.00
20260507173910 71 285 4.0 15.0 0.00 0.00 0.00
20260507173405 70 297 3.0 8.0 0.00 0.00 0.00
20260507172356 69 235 7.0 10.0 0.00 0.00 0.00
20260507171848 68 301 4.0 13.0 0.00 0.00 0.00
20260507171344 68 285 7.0 11.0 0.00 0.00 0.00
20260507170839 68 277 5.0 14.0 0.00 0.00 0.00
20260507170334 66 274 8.0 15.0 0.00 0.00 0.00
20260507165829 67 280 9.0 13.0 0.00 0.00 0.00
20260507165325 67 321 5.0 9.0 0.00 0.00 0.00
20260507164817 66 345 1.0 12.0 0.00 0.00 0.00
20260507164312 66 89 1.0 14.0 0.00 0.00 0.00
20260507163302 67 263 6.0 17.0 0.00 0.00 0.00
20260507162757 65 10 5.0 21.0 0.00 0.00 0.00
20260507162252 66 284 10.0 13.0 0.00 0.00 0.00
20260507161745 68 290 10.0 13.0 0.00 0.00 0.00
20260507161240 66 280 9.0 13.0 0.00 0.00 0.00
20260507160736 69 283 7.0 9.0 0.00 0.00 0.00
20260507160231 68 290 6.0 11.0 0.00 0.00 0.00
20260507155222 68 83 0.0 7.0 0.00 0.00 0.00
20260507154713 66 39 3.0 10.0 0.00 0.00 0.00
20260507154208 66 280 6.0 8.0 0.00 0.00 0.00
20260507153703 66 290 2.0 7.0 0.00 0.00 0.00
20260507153159 68 1 1.0 10.0 0.00 0.00 0.00
20260507152653 66 359 2.0 8.0 0.00 0.00 0.00
20260507152148 64 285 5.0 10.0 0.00 0.00 0.00
20260507151641 65 267 9.0 6.0 0.00 0.00 0.00
20260507151136 65 321 3.0 8.0 0.00 0.00 0.00
20260507150631 64 315 5.0 14.0 0.00 0.00 0.00
20260507150126 65 339 4.0 9.0 0.00 0.00 0.00
20260507145621 64 18 3.0 7.0 0.00 0.00 0.00
20260507145117 64 288 1.0 10.0 0.00 0.00 0.00
20260507144609 61 212 2.0 6.0 0.00 0.00 0.00
20260507144104 62 274 3.0 14.0 0.00 0.00 0.00
20260507143559 62 28 1.0 9.0 0.00 0.00 0.00
20260507143055 62 347 3.0 5.0 0.00 0.00 0.00
20260507142550 62 332 1.0 7.0 0.00 0.00 0.00
20260507142045 61 314 3.0 8.0 0.00 0.00 0.00
20260507141538 61 11 1.0 8.0 0.00 0.00 0.00
20260507140528 60 24 1.0 8.0 0.00 0.00 0.00
20260507140024 59 302 2.0 7.0 0.00 0.00 0.00
20260507135519 57 281 3.0 4.0 0.00 0.00 0.00
20260507135013 57 274 2.0 6.0 0.00 0.00 0.00
20260507134505 57 221 5.0 7.0 0.00 0.00 0.00
20260507134001 56 281 1.0 6.0 0.00 0.00 0.00
20260507133456 56 285 4.0 6.0 0.00 0.00 0.00
20260507132951 55 325 1.0 8.0 0.00 0.00 0.00
20260507132446 56 284 5.0 8.0 0.00 0.00 0.00
20260507131942 55 274 6.0 9.0 0.00 0.00 0.00
20260507131434 55 294 4.0 7.0 0.00 0.00 0.00
20260507130929 55 273 6.0 7.0 0.00 0.00 0.00
20260507130424 54 305 5.0 8.0 0.00 0.00 0.00
20260507125919 54 295 5.0 9.0 0.00 0.00 0.00
20260507125415 54 262 6.0 9.0 0.00 0.00 0.00